Weather History for KMPZ - February, 2013

Change the Weather History Date:

Wednesday, February 27, 2013

  Actual Average Record
Temperature  
Mean Temperature 36 °F -  
Max Temperature 37 °F 42 °F 72 °F (1976)
Min Temperature 34 °F 25 °F -11 °F (2015)
Degree Days  
Heating Degree Days 30    
Moisture  
Dew Point 29 °F    
Average Humidity 77    
Maximum Humidity 82    
Minimum Humidity 72    
Precipitation  
Precipitation 0.00 in - - ()
Sea Level Pressure  
Sea Level Pressure 29.76 in    
Wind  
Wind Speed 13 mph (NW)    
Max Wind Speed 17 mph    
Max Gust Speed 22 mph    
Visibility 4 miles    
Events Snow    
Averages and records for this station are not official NWS values.
T = Trace of Precipitation, MM = Missing Value Source: NWS Daily Summary

Daily Weather History Graph

Daily Weather History Graph

Search for Another Location

Airport or City:

Trip Planner

Search our weather history database for the weather conditions in past years. The results will help you decide how hot, cold, wet, or windy it might be!

Date:

Astronomy

Feb. 27, 2013 Rise Set
Actual Time 6:42 AM CST 5:55 PM CST
Civil Twilight 6:15 AM CST 6:22 PM CST
Nautical Twilight 5:43 AM CST 6:54 PM CST
Astronomical Twilight 5:11 AM CST 7:26 PM CST
Moon 8:18 PM CST (2/27) 7:17 AM CST (2/27)
Length of Visible Light 12h 07m
Length of Day
11h 12m
Waning Gibbous, 96% of the Moon is Illuminated
Feb 27
Waning Gibbous
Mar 4
Last Quarter
Mar 11
New
Mar 19
First Quarter
Mar 27
Full

Hourly Weather History & Observations

Time (CST) Temp. Windchill Dew Point Humidity Pressure Visibility Wind Dir Wind Speed Gust Speed Precip Events Conditions
12:15 AM 35.8 °F 25.7 °F 28.9 °F 76% 29.67 in 7.0 mi NNW 17.3 mph 21.9 mph N/A   Overcast
12:35 AM 35.6 °F 25.9 °F 29.1 °F 77% 29.68 in 5.0 mi NNW 16.1 mph - N/A   Haze
12:55 AM 35.6 °F 26.2 °F 29.3 °F 78% 29.68 in 5.0 mi NNW 15.0 mph - N/A   Haze
1:15 AM 35.2 °F 25.8 °F 29.3 °F 79% 29.68 in 7.0 mi NNW 15.0 mph 19.6 mph N/A   Overcast
1:35 AM 35.2 °F 25.4 °F 28.4 °F 76% 29.68 in 10.0 mi NNW 16.1 mph - N/A   Overcast
1:55 AM 35.1 °F 25.2 °F 28.4 °F 77% 29.68 in 10.0 mi NNW 16.1 mph - N/A   Overcast
2:15 AM 35.1 °F 25.9 °F 27.5 °F 74% 29.68 in 10.0 mi NNW 13.8 mph - N/A   Overcast
2:35 AM 34.7 °F 25.9 °F 28.4 °F 78% 29.68 in 4.0 mi NNW 12.7 mph - N/A Snow Light Snow
2:55 AM 34.7 °F 25.9 °F 28.6 °F 78% 29.68 in 5.0 mi NNW 12.7 mph 16.1 mph N/A Snow Light Snow
3:15 AM 34.7 °F 27.5 °F 28.4 °F 78% 29.68 in 7.0 mi NNW 9.2 mph - N/A   Overcast
3:35 AM 34.7 °F 26.4 °F 28.4 °F 78% 29.69 in 7.0 mi NW 11.5 mph - N/A   Overcast
3:55 AM 34.7 °F 26.4 °F 28.4 °F 78% 29.69 in 7.0 mi NNW 11.5 mph - N/A   Overcast
4:15 AM 34.7 °F 26.9 °F 28.2 °F 77% 29.69 in 10.0 mi NW 10.4 mph - N/A   Overcast
4:35 AM 34.7 °F 26.9 °F 28.4 °F 78% 29.70 in 5.0 mi NW 10.4 mph - N/A   Haze
4:55 AM 34.7 °F 26.9 °F 29.1 °F 80% 29.69 in 4.0 mi NW 10.4 mph - N/A Snow Light Snow
5:15 AM 34.7 °F 26.9 °F 29.3 °F 81% 29.69 in 4.0 mi NW 10.4 mph - N/A   Haze
5:35 AM 34.7 °F 26.9 °F 29.5 °F 81% 29.69 in 4.0 mi NW 10.4 mph - N/A Snow Light Snow
5:55 AM 34.7 °F 25.1 °F 29.3 °F 81% 29.70 in 5.0 mi NNW 15.0 mph - N/A Snow Light Snow
6:15 AM 34.7 °F 25.5 °F 29.1 °F 80% 29.70 in 5.0 mi NW 13.8 mph 17.3 mph N/A Snow Light Snow
6:35 AM 34.7 °F 26.9 °F 28.8 °F 79% 29.70 in 7.0 mi NW 10.4 mph - N/A   Overcast
6:55 AM 34.7 °F 27.5 °F 28.9 °F 79% 29.71 in 7.0 mi NW 9.2 mph - N/A   Overcast
7:15 AM 34.7 °F 25.9 °F 28.4 °F 78% 29.71 in 4.0 mi NNW 12.7 mph - N/A Snow Light Snow
7:35 AM 34.7 °F 26.9 °F 28.8 °F 79% 29.72 in 2.5 mi NNW 10.4 mph - N/A Snow Light Snow
7:55 AM 34.7 °F 26.4 °F 29.1 °F 80% 29.72 in 1.2 mi NNW 11.5 mph - N/A Snow Light Snow
8:15 AM 35.1 °F 26.9 °F 28.8 °F 78% 29.73 in 1.2 mi NNW 11.5 mph - N/A Snow Light Snow
8:35 AM 35.6 °F 28.0 °F 29.1 °F 77% 29.73 in 1.5 mi NNW 10.4 mph - N/A Snow Light Snow
9:15 AM 36.0 °F 30.3 °F 29.3 °F 77% 29.73 in 1.0 mi WNW 6.9 mph - N/A Snow Light Snow
9:35 AM 36.3 °F 30.1 °F 29.3 °F 76% 29.74 in 1.2 mi NW 8.1 mph - N/A Snow Light Snow
9:55 AM 36.9 °F 29.6 °F 29.3 °F 74% 29.74 in 1.0 mi NW 10.4 mph - N/A Snow Light Snow
10:15 AM 36.7 °F 29.4 °F 29.3 °F 75% 29.74 in 1.2 mi NW 10.4 mph - N/A Snow Light Snow
10:55 AM 37.4 °F 29.8 °F 29.3 °F 73% 29.75 in 1.5 mi NW 11.5 mph 17.3 mph N/A Snow Light Snow
11:15 AM 37.0 °F 31.0 °F 29.7 °F 75% 29.75 in 0.8 mi NW 8.1 mph - N/A Snow Light Snow
11:35 AM 37.2 °F 30.0 °F 29.1 °F 73% 29.74 in 0.8 mi NW 10.4 mph 18.4 mph N/A Snow Light Snow
12:15 PM 36.7 °F 29.4 °F 28.9 °F 74% 29.75 in 1.0 mi NW 10.4 mph 16.1 mph N/A Snow Light Snow
12:35 PM 36.9 °F 29.1 °F 28.9 °F 73% 29.74 in 1.0 mi NW 11.5 mph - N/A Snow Light Snow
12:55 PM 36.5 °F 28.7 °F 28.9 °F 74% 29.74 in 1.0 mi NW 11.5 mph 18.4 mph N/A Snow Light Snow
1:15 PM 36.5 °F 28.2 °F 28.9 °F 74% 29.75 in 1.0 mi NW 12.7 mph 18.4 mph N/A Snow Light Snow
1:35 PM 36.5 °F 27.8 °F 29.1 °F 75% 29.75 in 1.2 mi NW 13.8 mph - N/A Snow Light Snow
1:55 PM 36.7 °F 28.9 °F 29.1 °F 74% 29.75 in 1.5 mi NW 11.5 mph 17.3 mph N/A Snow Light Snow
2:15 PM 36.7 °F 28.9 °F 29.1 °F 74% 29.76 in 1.2 mi NW 11.5 mph 16.1 mph N/A Snow Light Snow
2:35 PM 36.7 °F 28.4 °F 28.8 °F 73% 29.76 in 1.8 mi NW 12.7 mph - N/A Snow Light Snow
2:55 PM 36.5 °F 28.2 °F 28.8 °F 74% 29.77 in 2.0 mi NW 12.7 mph 17.3 mph N/A Snow Light Snow
3:15 PM 36.5 °F 28.7 °F 28.6 °F 73% 29.78 in 3.0 mi WNW 11.5 mph 17.3 mph N/A Snow Light Snow
3:35 PM 36.7 °F 28.0 °F 28.8 °F 73% 29.78 in 2.0 mi NW 13.8 mph - N/A Snow Light Snow
3:55 PM 36.7 °F 28.4 °F 28.4 °F 72% 29.78 in 4.0 mi NW 12.7 mph - N/A Snow Light Snow
4:15 PM 36.7 °F 28.4 °F 28.4 °F 72% 29.79 in 4.0 mi NW 12.7 mph 17.3 mph N/A Snow Light Snow
4:35 PM 36.5 °F 28.2 °F 28.4 °F 72% 29.80 in 1.5 mi NW 12.7 mph 19.6 mph N/A Snow Light Snow
4:55 PM 36.1 °F 28.7 °F 29.1 °F 76% 29.80 in 1.5 mi WNW 10.4 mph 16.1 mph N/A Snow Light Snow
5:15 PM 36.0 °F 28.5 °F 29.5 °F 77% 29.81 in 1.2 mi WNW 10.4 mph - N/A Snow Light Snow
5:35 PM 35.8 °F 28.8 °F 29.7 °F 78% 29.82 in 1.0 mi WNW 9.2 mph - N/A Snow Light Snow
5:55 PM 35.6 °F 27.5 °F 29.8 °F 80% 29.82 in 1.2 mi WNW 11.5 mph 16.1 mph N/A Snow Light Snow
6:15 PM 35.8 °F 28.3 °F 29.7 °F 78% 29.83 in 7.0 mi WNW 10.4 mph 16.1 mph N/A Snow Light Snow
6:35 PM 36.0 °F 28.0 °F 29.3 °F 77% 29.84 in 10.0 mi WNW 11.5 mph - N/A Snow Light Snow
6:55 PM 36.1 °F 28.2 °F 29.3 °F 76% 29.84 in 10.0 mi WNW 11.5 mph 18.4 mph N/A   Overcast
7:15 PM 36.1 °F 29.3 °F 29.3 °F 76% 29.84 in 10.0 mi NW 9.2 mph 18.4 mph N/A   Overcast
7:35 PM 35.6 °F 27.5 °F 29.1 °F 77% 29.84 in 7.0 mi WNW 11.5 mph 16.1 mph N/A Snow Light Snow
8:15 PM 35.6 °F 27.5 °F 29.3 °F 78% 29.85 in 5.0 mi WNW 11.5 mph 19.6 mph N/A Snow Light Snow
8:35 PM 35.2 °F 27.1 °F 29.3 °F 79% 29.85 in 7.0 mi WNW 11.5 mph - N/A Snow Light Snow
8:55 PM 35.4 °F 27.3 °F 29.3 °F 78% 29.85 in 5.0 mi WNW 11.5 mph - N/A Snow Light Snow
9:15 PM 35.6 °F 28.0 °F 29.3 °F 78% 29.86 in 7.0 mi WNW 10.4 mph - N/A Snow Light Snow
9:35 PM 35.6 °F 28.6 °F 29.3 °F 78% 29.86 in 5.0 mi WNW 9.2 mph - N/A Snow Light Snow
9:55 PM 35.1 °F 27.4 °F 29.7 °F 81% 29.87 in 1.8 mi WNW 10.4 mph - N/A Snow Light Snow
10:35 PM 35.2 °F 27.6 °F 30.2 °F 82% 29.87 in 2.0 mi WNW 10.4 mph - N/A Snow Light Snow
10:55 PM 35.6 °F 28.0 °F 30.2 °F 81% 29.87 in 2.5 mi WNW 10.4 mph - N/A Snow Light Snow
11:15 PM 35.6 °F 28.0 °F 30.2 °F 81% 29.87 in 4.0 mi WNW 10.4 mph - N/A Snow Light Snow
11:35 PM 35.6 °F 28.0 °F 30.4 °F 81% 29.87 in 3.0 mi WNW 10.4 mph - N/A Snow Light Snow
11:55 PM 36.0 °F 29.0 °F 30.4 °F 80% 29.88 in 5.0 mi NW 9.2 mph - N/A Snow Light Snow